Wetterstats.de || Aktuelle Messwerte || Aktuelle Wetterkarten NEU! || Radar / Satellit NEU! || Wetterarchiv || Langzeitwerte NEU! || Klim. Kenntage || Met. Ereignisse || Agrarwerte || Echtzeitwerte

Monatsübersicht für August 2020 Diagramm
 
Wetter Information zur Wetteranzeige
Zeitraffer
Tageslänge (hh:mm)
Höchsttemperatur in °C
Uhrzeit
Tiefsttemperatur in °C
Uhrzeit
Luftfeuchte (max., in %)
Uhrzeit
Luftfeuchte (min., in %)
Uhrzeit
Luftdruck (max., in hPa)
Uhrzeit
Luftdruck (min., in hPa)
Uhrzeit
Luftdruck (Ø, in hPa)
Regenrate (max, mm/h)
Uhrzeit
Niederschlag in mm
Verdunstung in mm
Solar in W/m² (Ø)
Solar in W/m² (max.)
UV-Index (max.)
Sonnenscheindauer (hh:mm)
Windrichtung (Ø)
Windstärke (Ø in km/h)
Windstärke (Ø in bft)
Windböe (max., in km/h)
Uhrzeit
Windböe (max., in bft)
Uhrzeit
Taupunkt (max., in °C)
Uhrzeit
Taupunkt (min., in °C)
Uhrzeit
Windchill (min., in °C)
Uhrzeit
Gewitterindex (max.)
Uhrzeit
Waldbrandindex (max.)
Uhrzeit
Graslandfeuerindex (max.)
Uhrzeit
Staubsturm-Index (max.)
Uhrzeit
01
Zeitraffer
15:35
29.4
15:20 Uhr
11.1
04:55 Uhr

92
05:35 Uhr
35
15:20 Uhr
1018.8
00:45 Uhr

1014.3
20:00 Uhr
1016.6
0,000
00:15 Uhr
0,000
3.962
370
772
13:20 Uhr
5.5
12:45 Uhr

09:15:00
0,8
0
17,7
11:50 Uhr

3
15.4
11:15 Uhr
9.6
02:15 Uhr
11.1
04:55 Uhr
6
08:55 Uhr

00:00 Uhr

00:00 Uhr

00:00 Uhr
02
Zeitraffer
15:32
26.4
10:40 Uhr
17.6
00:05 Uhr

94
21:55 Uhr
50
10:45 Uhr
1014.3
00:05 Uhr

1012.0
09:45 Uhr
1012.7
2,400
12:35 Uhr
1,400
1.524
143
719
10:30 Uhr
3.0
10:30 Uhr

01:10:00
0,5
0
17,7
13:50 Uhr

3
18.5
17:40 Uhr
12.1
00:30 Uhr
17.6
00:05 Uhr
12
21:55 Uhr

00:00 Uhr

00:00 Uhr

00:00 Uhr
03
Zeitraffer
15:28
21.2
18:10 Uhr
12.8
23:55 Uhr

95
04:10 Uhr
65
19:15 Uhr
1012.5
00:05 Uhr

1010.0
18:30 Uhr
1011.3
6,000
02:40 Uhr
1,500
1.067
115
471
17:35 Uhr
2.2
12:40 Uhr

00:20:00
0,8
0
14,5
15:00 Uhr

3
17.5
01:45 Uhr
11.3
23:55 Uhr
12.8
23:55 Uhr
12
00:05 Uhr

00:00 Uhr

00:00 Uhr

00:00 Uhr
04
Zeitraffer
15:25
22.4
13:20 Uhr
9.7
04:30 Uhr

94
05:55 Uhr
47
13:20 Uhr
1017.8
23:45 Uhr

1011.2
01:00 Uhr
1013.7
0,000
00:05 Uhr
0,000
2.159
230
805
12:40 Uhr
5.2
12:50 Uhr

02:15:00
1,2
0
20,9
10:20 Uhr

4
14.4
09:40 Uhr
8.6
04:30 Uhr
9.7
04:30 Uhr
5
09:10 Uhr

00:00 Uhr

00:00 Uhr

00:00 Uhr
05
Zeitraffer
15:22
27.3
16:15 Uhr
8.8
06:05 Uhr

94
04:45 Uhr
35
17:40 Uhr
1020.6
23:45 Uhr

1017.5
00:05 Uhr
1019.2
0,000
00:05 Uhr
0,000
3.658
356
835
14:00 Uhr
5.2
13:00 Uhr

08:45:00
0,9
0
19,3
12:25 Uhr

3
14.4
09:40 Uhr
7.8
04:30 Uhr
8.8
06:05 Uhr
5
08:55 Uhr

00:00 Uhr

00:00 Uhr

00:00 Uhr
06
Zeitraffer
15:18
30.4
16:10 Uhr
11.5
05:35 Uhr

92
05:45 Uhr
35
14:45 Uhr
1023.3
10:45 Uhr

1020.8
00:05 Uhr
1022.2
0,000
00:05 Uhr
0,000
4.039
365
754
13:25 Uhr
5.1
13:05 Uhr

09:05:00
1,3
0
20,9
15:00 Uhr

4
15.6
21:10 Uhr
10.1
05:15 Uhr
11.5
05:35 Uhr
9
21:25 Uhr

00:00 Uhr

00:00 Uhr

00:00 Uhr
07
Zeitraffer
15:15
33.8
16:35 Uhr
14.9
05:35 Uhr

91
05:25 Uhr
39
17:35 Uhr
1023.1
08:45 Uhr

1020.2
18:30 Uhr
1021.9
0,000
00:05 Uhr
0,000
4.089
360
733
14:10 Uhr
4.3
12:30 Uhr

08:40:00
1,4
0
20,9
15:45 Uhr

4
20.8
13:05 Uhr
13.3
05:35 Uhr
14.9
05:35 Uhr
13
21:25 Uhr

00:00 Uhr

00:00 Uhr

00:00 Uhr
08
Zeitraffer
15:11
35.8
15:45 Uhr
17.6
05:50 Uhr

88
05:35 Uhr
28
13:40 Uhr
1021.9
07:15 Uhr

1018.4
18:15 Uhr
1020.2
0,000
00:05 Uhr
0,000
3.861
327
793
13:35 Uhr
4.3
12:40 Uhr

07:25:00
0,8
0
20,9
12:05 Uhr

4
20.8
20:55 Uhr
13.9
13:40 Uhr
17.6
05:50 Uhr
14
21:20 Uhr

00:00 Uhr

00:00 Uhr

00:00 Uhr
09
Zeitraffer
15:07
36.1
14:30 Uhr
18.1
05:40 Uhr

89
05:15 Uhr
32
14:30 Uhr
1019.3
08:15 Uhr

1016.4
18:30 Uhr
1018.1
0,000
00:05 Uhr
0,000
2.769
244
784
14:15 Uhr
4.2
13:00 Uhr

04:15:00
0,5
0
20,9
14:45 Uhr

4
22.1
10:55 Uhr
16.1
13:50 Uhr
18.1
05:40 Uhr
13
10:10 Uhr

00:00 Uhr

00:00 Uhr

00:00 Uhr
10
Zeitraffer
15:04
31.4
14:55 Uhr
20.2
04:20 Uhr

81
04:20 Uhr
44
17:15 Uhr
1018.8
10:00 Uhr

1017.3
18:30 Uhr
1018.0
0,000
00:05 Uhr
0,000
2.794
240
726
13:20 Uhr
4.2
13:20 Uhr

02:55:00
0,5
0
14,5
08:45 Uhr

3
20.0
13:20 Uhr
16.6
06:10 Uhr
20.2
04:20 Uhr
13
01:40 Uhr

00:00 Uhr

00:00 Uhr

00:00 Uhr
11
Zeitraffer
15:00
33.3
14:50 Uhr
15.9
05:45 Uhr

92
06:35 Uhr
30
16:00 Uhr
1020.4
09:30 Uhr

1018.6
18:30 Uhr
1019.6
0,000
00:05 Uhr
0,000
3.912
343
732
13:20 Uhr
4.4
12:55 Uhr

08:10:00
1,2
0
20,9
11:40 Uhr

4
19.9
10:05 Uhr
13.0
16:00 Uhr
15.9
05:45 Uhr
11
00:05 Uhr

00:00 Uhr

00:00 Uhr

00:00 Uhr
12
Zeitraffer
14:56
20.2
00:05 Uhr
17.0
03:35 Uhr

82
02:45 Uhr
70
00:05 Uhr
1020.8
03:30 Uhr

1020.3
00:05 Uhr
1020.5
0,000
00:05 Uhr
0,000
0.102
0
0
00:05 Uhr
0.0
00:05 Uhr

00:00:00
0,1
0
8,0
04:15 Uhr

2
14.9
01:25 Uhr
13.0
04:10 Uhr
17.0
03:35 Uhr
9
01:25 Uhr

00:00 Uhr

00:00 Uhr

00:00 Uhr
13
Zeitraffer
14:53
30.1
18:10 Uhr
13.1
04:00 Uhr

62
21:10 Uhr
44
18:10 Uhr
1013.4
21:15 Uhr

1012.9
19:30 Uhr
1013.1
0,000
18:10 Uhr
0,000
0.203
41
78
18:10 Uhr
0.0
18:10 Uhr

00:00:00
0,0
0
6,4
22:15 Uhr

1
19.0
18:20 Uhr
12.7
22:25 Uhr
23.1
23:00 Uhr
11
21:10 Uhr

00:00 Uhr

00:00 Uhr

00:00 Uhr
14
Zeitraffer
14:49
23.3
17:00 Uhr
17.2
06:10 Uhr

93
14:05 Uhr
52
00:25 Uhr
1014.1
11:00 Uhr

1012.6
19:05 Uhr
1013.4
6,000
13:30 Uhr
3,000
0.890
89
306
15:35 Uhr
1.7
15:35 Uhr

00:00:00
0,2
0
8,0
05:35 Uhr

2
20.2
16:45 Uhr
12.2
01:30 Uhr
17.2
06:10 Uhr
12
21:10 Uhr

00:00 Uhr

00:00 Uhr

00:00 Uhr
15
Zeitraffer
14:45
29.7
16:10 Uhr
17.8
03:25 Uhr

93
04:35 Uhr
49
16:30 Uhr
1015.8
23:45 Uhr

1013.4
05:30 Uhr
1014.5
0,000
00:05 Uhr
0,000
2.540
257
761
13:25 Uhr
3.9
13:25 Uhr

04:40:00
0,6
0
16,1
14:20 Uhr

3
19.9
14:15 Uhr
16.4
23:45 Uhr
17.8
03:25 Uhr
12
00:05 Uhr

00:00 Uhr

00:00 Uhr

00:00 Uhr


 
Wetter Information zur Wetteranzeige
Zeitraffer
Tageslänge (hh:mm)
Höchsttemperatur in °C
Uhrzeit
Tiefsttemperatur in °C
Uhrzeit
Luftfeuchte (max., in %)
Uhrzeit
Luftfeuchte (min., in %)
Uhrzeit
Luftdruck (max., in hPa)
Uhrzeit
Luftdruck (min., in hPa)
Uhrzeit
Luftdruck (Ø, in hPa)
Regenrate (max, mm/h)
Uhrzeit
Niederschlag in mm
Verdunstung in mm
Solar in W/m² (Ø)
Solar in W/m² (max.)
UV-Index (max.)
Sonnenscheindauer (hh:mm)
Windrichtung (Ø)
Windstärke (Ø in km/h)
Windstärke (Ø in bft)
Windböe (max., in km/h)
Uhrzeit
Windböe (max., in bft)
Uhrzeit
Taupunkt (max., in °C)
Uhrzeit
Taupunkt (min., in °C)
Uhrzeit
Windchill (min., in °C)
Uhrzeit
Gewitterindex (max.)
Uhrzeit
Waldbrandindex (max.)
Uhrzeit
Graslandfeuerindex (max.)
Uhrzeit
Staubsturm-Index (max.)
Uhrzeit
16
Zeitraffer
14:42
30.6
15:10 Uhr
14.7
05:55 Uhr

95
05:35 Uhr
28
16:25 Uhr
1016.3
09:30 Uhr

1012.8
19:00 Uhr
1014.9
0,000
00:05 Uhr
0,000
3.098
345
723
13:20 Uhr
4.2
12:35 Uhr

08:15:00
1,6
0
24,1
11:50 Uhr

4
16.9
09:25 Uhr
9.4
16:40 Uhr
14.7
05:55 Uhr
10
00:05 Uhr

00:00 Uhr

00:00 Uhr

00:00 Uhr
17
Zeitraffer
14:38
31.5
14:45 Uhr
14.1
06:15 Uhr

86
04:55 Uhr
35
16:45 Uhr
1013.1
00:05 Uhr

1008.1
18:15 Uhr
1010.4
0,000
00:05 Uhr
0,000
3.302
310
779
13:15 Uhr
4.0
13:00 Uhr

06:15:00
0,8
0
20,9
13:25 Uhr

4
18.5
18:30 Uhr
11.7
05:55 Uhr
14.1
06:15 Uhr
10
18:30 Uhr

00:00 Uhr

00:00 Uhr

00:00 Uhr
18
Zeitraffer
14:34
25.9
17:30 Uhr
17.6
23:50 Uhr

93
11:30 Uhr
60
17:15 Uhr
1010.1
11:15 Uhr

1008.3
04:30 Uhr
1009.0
2,400
10:05 Uhr
3,200
1.600
161
522
17:10 Uhr
3.0
14:00 Uhr

02:35:00
1,1
0
22,5
08:25 Uhr

4
19.8
14:10 Uhr
15.5
00:45 Uhr
17.6
23:50 Uhr
11
02:45 Uhr

00:00 Uhr

00:00 Uhr

00:00 Uhr
19
Zeitraffer
14:31
26.6
13:55 Uhr
14.4
23:55 Uhr

93
03:25 Uhr
51
13:55 Uhr
1011.0
10:15 Uhr

1009.5
02:15 Uhr
1010.3
16,800
14:35 Uhr
2,800
2.184
246
860
13:45 Uhr
4.2
12:45 Uhr

04:40:00
0,9
0
19,3
15:00 Uhr

3
19.6
16:15 Uhr
13.2
23:50 Uhr
14.4
23:55 Uhr
11
16:15 Uhr

00:00 Uhr

00:00 Uhr

00:00 Uhr
20
Zeitraffer
14:26
31.0
17:35 Uhr
11.8
05:10 Uhr

95
07:35 Uhr
37
14:50 Uhr
1012.4
23:45 Uhr

1010.6
00:15 Uhr
1011.5
0,000
00:05 Uhr
0,000
2.667
361
765
13:40 Uhr
4.5
13:20 Uhr

07:05:00
1,3
0
20,9
15:40 Uhr

4
18.9
20:00 Uhr
10.8
05:20 Uhr
11.8
05:10 Uhr
11
20:55 Uhr

00:00 Uhr

00:00 Uhr

00:00 Uhr
21
Zeitraffer
14:22
35.0
15:50 Uhr
16.7
06:10 Uhr

90
04:20 Uhr
33
17:00 Uhr
1012.7
04:45 Uhr

1010.2
19:30 Uhr
1011.7
0,000
00:05 Uhr
0,000
4.115
336
689
13:20 Uhr
4.4
12:40 Uhr

08:15:00
2,0
0
27,4
14:05 Uhr

4
18.4
11:25 Uhr
15.1
05:50 Uhr
16.7
06:10 Uhr
12
22:30 Uhr

00:00 Uhr

00:00 Uhr

00:00 Uhr
22
Zeitraffer
14:19
26.3
00:05 Uhr
19.1
22:50 Uhr

94
23:10 Uhr
60
00:05 Uhr
1015.1
09:45 Uhr

1011.3
00:05 Uhr
1013.4
22,800
09:25 Uhr
10,200
1.194
108
542
14:15 Uhr
3.4
14:05 Uhr

00:15:00
1,4
0
25,7
08:35 Uhr

4
20.4
18:30 Uhr
17.7
00:35 Uhr
19.1
22:50 Uhr
14
04:15 Uhr

00:00 Uhr

00:00 Uhr

00:00 Uhr
23
Zeitraffer
14:15
25.5
14:00 Uhr
14.6
23:45 Uhr

95
05:15 Uhr
46
13:35 Uhr
1014.9
07:45 Uhr

1013.1
15:30 Uhr
1014.1
16,800
18:35 Uhr
5,400
2.185
250
853
13:30 Uhr
4.5
12:40 Uhr

04:05:00
1,9
0
30,6
12:40 Uhr

5
18.2
00:05 Uhr
12.4
14:55 Uhr
14.6
23:45 Uhr
12
00:05 Uhr

00:00 Uhr

00:00 Uhr

00:00 Uhr
24
Zeitraffer
14:11
22.2
13:35 Uhr
13.1
05:45 Uhr

94
00:05 Uhr
61
13:35 Uhr
1015.7
10:30 Uhr

1012.6
18:30 Uhr
1014.3
16,800
16:10 Uhr
2,500
2.007
222
869
13:55 Uhr
5.2
13:30 Uhr

03:25:00
1,5
0
20,9
11:55 Uhr

4
17.7
17:05 Uhr
11.8
06:35 Uhr
13.1
05:45 Uhr
9
17:05 Uhr

00:00 Uhr

00:00 Uhr

00:00 Uhr
25
Zeitraffer
14:07
23.3
14:05 Uhr
12.3
05:35 Uhr

92
00:55 Uhr
48
16:30 Uhr
1014.2
01:15 Uhr

1008.3
23:30 Uhr
1012.6
2,400
10:45 Uhr
0,200
2.565
314
816
13:35 Uhr
4.5
12:50 Uhr

05:40:00
2,3
1
25,7
12:40 Uhr

4
14.3
19:25 Uhr
10.7
05:35 Uhr
12.3
05:35 Uhr
8
20:55 Uhr

00:00 Uhr

00:00 Uhr

00:00 Uhr
26
Zeitraffer
14:03
22.6
10:05 Uhr
15.2
22:50 Uhr

92
13:40 Uhr
54
11:05 Uhr
1008.1
00:05 Uhr

1002.4
05:00 Uhr
1004.7
6,000
11:55 Uhr
6,500
1.295
105
647
10:00 Uhr
2.3
14:20 Uhr

00:35:00
4,7
1
41,8
11:05 Uhr

6
15.7
15:35 Uhr
11.8
11:05 Uhr
12.3
23:30 Uhr
8
00:55 Uhr

00:00 Uhr

00:00 Uhr

00:00 Uhr
27
Zeitraffer
13:59
19.6
15:25 Uhr
10.4
23:35 Uhr

92
00:05 Uhr
61
14:50 Uhr
1014.0
20:30 Uhr

1007.6
00:05 Uhr
1013.1
0,000
00:05 Uhr
0,000
1.422
239
900
12:00 Uhr
4.4
12:15 Uhr

01:55:00
5,4
1
33,8
11:30 Uhr

5
14.3
00:45 Uhr
9.0
23:35 Uhr
10.4
23:35 Uhr
8
00:05 Uhr

00:00 Uhr

00:00 Uhr

00:00 Uhr
28
Kein Zeitraffer vorhanden
13:56
23.2
16:50 Uhr
10.1
00:20 Uhr

93
10:50 Uhr
63
16:55 Uhr
1013.1
00:15 Uhr

1001.8
23:30 Uhr
1006.5
2,400
09:10 Uhr
2,400
1.575
198
941
13:35 Uhr
4.5
13:35 Uhr

02:30:00
1,2
0
19,3
14:35 Uhr

3
17.1
19:15 Uhr
8.8
00:25 Uhr
10.1
00:20 Uhr
11
20:35 Uhr

00:00 Uhr

00:00 Uhr

00:00 Uhr
29
Zeitraffer
13:51
23.8
15:05 Uhr
15.9
23:45 Uhr

91
00:20 Uhr
49
15:05 Uhr
1008.0
22:15 Uhr

1001.1
02:00 Uhr
1004.7
0,000
00:05 Uhr
0,000
1.956
251
826
12:30 Uhr
4.0
12:15 Uhr

03:35:00
1,7
0
22,5
11:10 Uhr

4
16.0
00:20 Uhr
11.7
17:30 Uhr
15.9
23:45 Uhr
10
00:05 Uhr

00:00 Uhr

00:00 Uhr

00:00 Uhr
30
Zeitraffer
13:47
22.7
11:25 Uhr
15.3
23:10 Uhr

94
21:15 Uhr
68
11:30 Uhr
1008.6
12:30 Uhr

1007.0
19:15 Uhr
1007.8
12,000
22:30 Uhr
13,700
1.092
140
717
10:45 Uhr
3.0
11:20 Uhr

01:05:00
0,5
0
16,1
23:15 Uhr

3
17.3
10:50 Uhr
13.4
00:05 Uhr
15.3
23:10 Uhr
9
20:30 Uhr

00:00 Uhr

00:00 Uhr

00:00 Uhr
31
Zeitraffer
13:44
22.4
15:25 Uhr
10.9
23:30 Uhr

95
03:50 Uhr
54
15:55 Uhr
1018.0
21:15 Uhr

1008.3
01:30 Uhr
1013.8
26,400
08:45 Uhr
17,200
1.905
245
872
13:45 Uhr
4.2
13:45 Uhr

03:00:00
1,3
0
25,7
16:15 Uhr

4
16.7
12:00 Uhr
9.9
23:25 Uhr
10.9
23:30 Uhr
8
00:05 Uhr

00:00 Uhr

00:00 Uhr

00:00 Uhr
Stationsstandorte || Wetterblog || Wissenswertes || Downloads || Seitenhistorie || Partner || Impressum / Datenschutz